Location: Clanezzo
(45.7500°N, 9.6000°E)
Time: 19:24:34
(UTC+00:00)

Cosmos 773 Rocket - Pass Details

Date: 02 October 2021
Orbit: 745 x 777 km, 74.1° (Epoch: 24 October)

Event Time Altitude Azimuth Distance (km) Brightness Sun altitude
Rises 17:32:34 0° 333° (NNW) 3,254 7.7 -6.6°
Reaches altitude 10° 17:35:01 10° 328° (NNW) 2,326 7.0 -7.0°
Maximum altitude 17:40:04 48° 255° (WSW) 1,006 5.2 -7.9°
Drops below altitude 10° 17:45:07 10° 182° (S) 2,320 6.5 -8.8°
Sets 17:47:34 0° 177° (S) 3,244 7.2 -9.2°
